NINGXIA-1 4 (44782 NORAD) Tracking and Keplerian Element Data

This shows tracking and keplerian element data for the satellite.

Feedback or suggestion? Click here.




ElementValue
Catalog44782
NameNINGXIA-1 4
Epoch Orbit924
Epoch Day18.13018418
Epoch Year2020
RAAN201.3762
Inclination45.009
Eccentricity0.0012789
Argument of Perigee211.1943
Mean Anonmoly148.8133
Mean Motion14.0166463
Decay Rate-1.3E-06
L11 44782U 19076D 20018.13018418 -.00000130 00000-0 00000+0 0 9999
L22 44782 45.0090 201.3762 0012789 211.1943 148.8133 14.01664630 9248

Live tracking and technical data element details for NINGXIA-1 4 (NORAD 44782). NINGXIA-1 4 can be tracked NOW for your location showing map with azimuth and elevation plus other details from your city location.

Track the satellite on the map from your city or location and see movement details for azimuth, elevation, latitude, longitude, range, height, and movement on the map or in text.







IsCatalogInMostPopularTable: catalog: 44782, numindb: 9
Update: records affected: 1



GetName: 44782 NINGXIA-1 4

Hit Count: updated at: Sat, 18 Jan 2020 17:03:52 GMT